This is the latest recevied weather packets stored in our database for station/object W9WRP. If no packets are shown the sender has not sent any weather packets the latest 1 day(s).
| Time | Temp. | Humidity | Pressure | Rain* | Wind** | Luminosity | Snow |
|---|---|---|---|---|---|---|---|
| 1778025605 | 25° C | 22% | 1011.8 hPa | 0 mm | 1.34 m/s, 242° | 158 W/m² | - |
| 1778025303 | 25° C | 21% | 1011.4 hPa | 0 mm | 0.45 m/s, 250° | 274 W/m² | - |
| 1778024999 | 25° C | 22% | 1011.7 hPa | 0 mm | 0.89 m/s, 257° | 246 W/m² | - |
| 1778024696 | 23.89° C | 22% | 1011.4 hPa | 0 mm | 0.89 m/s, 229° | 135 W/m² | - |
| 1778024393 | 23.33° C | 24% | 1011.5 hPa | 0 mm | 1.34 m/s, 166° | 74 W/m² | - |
| 1778024091 | 23.33° C | 24% | 1011.5 hPa | 0 mm | 0.45 m/s, 231° | 64 W/m² | - |
| 1778023788 | 24.44° C | 23% | 1011.3 hPa | 0 mm | 0.89 m/s, 224° | 86 W/m² | - |
| 1778023486 | 24.44° C | 23% | 1011.5 hPa | 0 mm | 1.34 m/s, 230° | 127 W/m² | - |
| 1778023183 | 23.89° C | 24% | 1011.4 hPa | 0 mm | 0 m/s | 184 W/m² | - |
| 1778022879 | 23.33° C | 24% | 1011.6 hPa | 0 mm | 0.45 m/s, 232° | 88 W/m² | - |
| 1778022578 | 24.44° C | 23% | 1011.8 hPa | 0 mm | 0.89 m/s, 252° | 73 W/m² | - |
| 1778022276 | 25.56° C | 21% | 1011.5 hPa | 0 mm | 0.45 m/s, 208° | 123 W/m² | - |
| 1778021972 | 25° C | 22% | 1011.5 hPa | 0 mm | 0.45 m/s, 244° | 540 W/m² | - |
| 1778021669 | 23.89° C | 24% | 1011.7 hPa | 0 mm | 0.45 m/s, 236° | 261 W/m² | - |
| 1778021365 | 23.89° C | 24% | 1011.6 hPa | 0 mm | 0.45 m/s, 205° | 112 W/m² | - |
| 1778021062 | 24.44° C | 23% | 1011.7 hPa | 0 mm | 0.45 m/s, 223° | 112 W/m² | - |
| 1778020759 | 25° C | 22% | 1011.8 hPa | 0 mm | 1.34 m/s, 204° | 369 W/m² | - |
| 1778020456 | 23.89° C | 24% | 1011.8 hPa | 0 mm | 0.45 m/s, 241° | 450 W/m² | - |
| 1778020152 | 23.89° C | 23% | 1012 hPa | 0 mm | 1.34 m/s, 198° | 108 W/m² | - |
| 1778019848 | 25° C | 23% | 1011.9 hPa | 0 mm | 0.89 m/s, 240° | 77 W/m² | - |
| 1778019544 | 25.56° C | 22% | 1011.9 hPa | 0 mm | 0.89 m/s, 252° | 563 W/m² | - |
| 1778019242 | 25° C | 22% | 1012 hPa | 0 mm | 0.89 m/s, 218° | 587 W/m² | - |
| 1778018939 | 25° C | 22% | 1012 hPa | 0 mm | 0.89 m/s, 228° | 639 W/m² | - |
| 1778018636 | 25.56° C | 22% | 1012.2 hPa | 0 mm | 0.45 m/s, 245° | 164 W/m² | - |
| 1778018334 | 25.56° C | 22% | 1012.2 hPa | 0 mm | 0.89 m/s, 236° | 662 W/m² | - |
* Rain latest hour (hover to see other rain measurements)
** Current wind speed in m/s (hover to see current wind gust speed)